Year,Month,Day,Hour,Minute,Value (Times are PST for temperature in C)
2015,02,16,00,00,1.70
2015,02,16,00,01,1.70
2015,02,16,00,02,1.70
2015,02,16,00,03,1.70
2015,02,16,00,04,1.70
2015,02,16,00,05,1.70
2015,02,16,00,06,1.70
2015,02,16,00,07,1.70
2015,02,16,00,08,1.70
2015,02,16,00,09,1.60
2015,02,16,00,10,1.60
2015,02,16,00,11,1.60
2015,02,16,00,12,1.60
2015,02,16,00,13,1.60
2015,02,16,00,14,1.60
2015,02,16,00,15,1.60
2015,02,16,00,16,1.60
2015,02,16,00,17,1.60
2015,02,16,00,18,1.60
2015,02,16,00,19,1.60
2015,02,16,00,20,1.60
2015,02,16,00,21,1.60
2015,02,16,00,22,1.60
2015,02,16,00,23,1.60
2015,02,16,00,24,1.60
2015,02,16,00,25,1.60
2015,02,16,00,26,1.60
2015,02,16,00,27,1.60
2015,02,16,00,28,1.60
2015,02,16,00,29,1.60
2015,02,16,00,30,1.60
2015,02,16,00,31,1.60
2015,02,16,00,32,1.60
2015,02,16,00,33,1.60
2015,02,16,00,34,1.60
2015,02,16,00,35,1.60
2015,02,16,00,36,1.50
2015,02,16,00,37,1.50
2015,02,16,00,38,1.50
2015,02,16,00,39,1.40
2015,02,16,00,40,1.40
2015,02,16,00,41,1.40
2015,02,16,00,42,1.30
2015,02,16,00,43,1.30
2015,02,16,00,44,1.30
2015,02,16,00,45,1.30
2015,02,16,00,46,1.30
2015,02,16,00,47,1.30
2015,02,16,00,48,1.30
2015,02,16,00,49,1.30
2015,02,16,00,50,1.30
2015,02,16,00,51,1.30
2015,02,16,00,52,1.30
2015,02,16,00,53,1.30
2015,02,16,00,54,1.30
2015,02,16,00,55,1.30
2015,02,16,00,56,1.30
2015,02,16,00,57,1.30
2015,02,16,00,58,1.30
2015,02,16,00,59,1.30
2015,02,16,01,00,1.30
2015,02,16,01,01,1.30
2015,02,16,01,02,1.30
2015,02,16,01,03,1.30
2015,02,16,01,04,1.30
2015,02,16,01,05,1.30
2015,02,16,01,06,1.30
2015,02,16,01,07,1.30
2015,02,16,01,08,1.30
2015,02,16,01,09,1.30
2015,02,16,01,10,1.30
2015,02,16,01,11,1.30
2015,02,16,01,12,1.30
2015,02,16,01,13,1.30
2015,02,16,01,14,1.30
2015,02,16,01,15,1.30
2015,02,16,01,16,1.30
2015,02,16,01,17,1.30
2015,02,16,01,18,1.30
2015,02,16,01,19,1.30
2015,02,16,01,20,1.30
2015,02,16,01,21,1.30
2015,02,16,01,22,1.30
2015,02,16,01,23,1.30
2015,02,16,01,24,1.30
2015,02,16,01,25,1.20
2015,02,16,01,26,1.20
2015,02,16,01,27,1.20
2015,02,16,01,28,1.20
2015,02,16,01,29,1.20
2015,02,16,01,30,1.20
2015,02,16,01,31,1.20
2015,02,16,01,32,1.20
2015,02,16,01,33,1.20
2015,02,16,01,34,1.20
2015,02,16,01,35,1.20
2015,02,16,01,36,1.20
2015,02,16,01,37,1.20
2015,02,16,01,38,1.20
2015,02,16,01,39,1.20
2015,02,16,01,40,1.20
2015,02,16,01,41,1.20
2015,02,16,01,42,1.20
2015,02,16,01,43,1.20
2015,02,16,01,44,1.20
2015,02,16,01,45,1.20
2015,02,16,01,46,1.20
2015,02,16,01,47,1.10
2015,02,16,01,48,1.10
2015,02,16,01,49,1.10
2015,02,16,01,50,1.10
2015,02,16,01,51,1.10
2015,02,16,01,52,1.10
2015,02,16,01,53,1.10
2015,02,16,01,54,1.10
2015,02,16,01,55,1.10
2015,02,16,01,56,1.00
2015,02,16,01,57,1.00
2015,02,16,01,58,1.00
2015,02,16,01,59,1.00
2015,02,16,02,00,1.00
2015,02,16,02,01,1.00
2015,02,16,02,02,1.00
2015,02,16,02,03,1.00
2015,02,16,02,04,1.00
2015,02,16,02,05,1.00
2015,02,16,02,06,1.00
2015,02,16,02,07,1.00
2015,02,16,02,08,1.00
2015,02,16,02,09,0.90
2015,02,16,02,10,0.90
2015,02,16,02,11,0.90
2015,02,16,02,12,0.90
2015,02,16,02,13,0.90
2015,02,16,02,14,0.90
2015,02,16,02,15,0.90
2015,02,16,02,16,0.90
2015,02,16,02,17,0.90
2015,02,16,02,18,0.90
2015,02,16,02,19,0.90
2015,02,16,02,20,0.90
2015,02,16,02,21,0.80
2015,02,16,02,22,0.80
2015,02,16,02,23,0.80
2015,02,16,02,24,0.80
2015,02,16,02,25,0.80
2015,02,16,02,26,0.80
2015,02,16,02,27,0.80
2015,02,16,02,28,0.80
2015,02,16,02,29,0.80
2015,02,16,02,30,0.70
2015,02,16,02,31,0.70
2015,02,16,02,32,0.70
2015,02,16,02,33,0.70
2015,02,16,02,34,0.70
2015,02,16,02,35,0.70
2015,02,16,02,36,0.70
2015,02,16,02,37,0.70
2015,02,16,02,38,0.70
2015,02,16,02,39,0.70
2015,02,16,02,40,0.60
2015,02,16,02,41,0.60
2015,02,16,02,42,0.60
2015,02,16,02,43,0.60
2015,02,16,02,44,0.60
2015,02,16,02,45,0.60
2015,02,16,02,46,0.60
2015,02,16,02,47,0.60
2015,02,16,02,48,0.60
2015,02,16,02,49,0.60
2015,02,16,02,50,0.60
2015,02,16,02,51,0.60
2015,02,16,02,52,0.60
2015,02,16,02,53,0.60
2015,02,16,02,54,0.60
2015,02,16,02,55,0.60
2015,02,16,02,56,0.60
2015,02,16,02,57,0.60
2015,02,16,02,58,0.60
2015,02,16,02,59,0.60
2015,02,16,03,00,0.60
2015,02,16,03,01,0.60
2015,02,16,03,02,0.60
2015,02,16,03,06,0.70
2015,02,16,03,07,0.70
2015,02,16,03,08,0.70
2015,02,16,03,09,0.70
2015,02,16,03,10,0.70
2015,02,16,03,11,0.70
2015,02,16,03,12,0.70
2015,02,16,03,13,0.70
2015,02,16,03,14,0.70
2015,02,16,03,15,0.70
2015,02,16,03,16,0.70
2015,02,16,03,17,0.70
2015,02,16,03,18,0.70
2015,02,16,03,19,0.70
2015,02,16,03,20,0.70
2015,02,16,03,21,0.70
2015,02,16,03,22,0.60
2015,02,16,03,23,0.60
2015,02,16,03,24,0.60
2015,02,16,03,25,0.60
2015,02,16,03,26,0.60
2015,02,16,03,27,0.60
2015,02,16,03,28,0.60
2015,02,16,03,29,0.60
2015,02,16,03,30,0.60
2015,02,16,03,31,0.60
2015,02,16,03,32,0.60
2015,02,16,03,33,0.70
2015,02,16,03,34,0.70
2015,02,16,03,35,0.70
2015,02,16,03,36,0.70
2015,02,16,03,37,0.70
2015,02,16,03,38,0.70
2015,02,16,03,39,0.70
2015,02,16,03,40,0.70
2015,02,16,03,41,0.70
2015,02,16,03,42,0.70
2015,02,16,03,43,0.70
2015,02,16,03,44,0.70
2015,02,16,03,45,0.70
2015,02,16,03,46,0.60
2015,02,16,03,47,0.60
2015,02,16,03,48,0.60
2015,02,16,03,49,0.60
2015,02,16,03,50,0.60
2015,02,16,03,51,0.50
2015,02,16,03,52,0.50
2015,02,16,03,53,0.50
2015,02,16,03,54,0.50
2015,02,16,03,55,0.50
2015,02,16,03,56,0.50
2015,02,16,03,57,0.50
2015,02,16,03,58,0.50
2015,02,16,03,59,0.50
2015,02,16,04,00,0.50
2015,02,16,04,01,0.50
2015,02,16,04,02,0.50
2015,02,16,04,03,0.50
2015,02,16,04,04,0.50
2015,02,16,04,05,0.40
2015,02,16,04,06,0.40
2015,02,16,04,07,0.40
2015,02,16,04,08,0.40
2015,02,16,04,09,0.40
2015,02,16,04,10,0.40
2015,02,16,04,11,0.40
2015,02,16,04,12,0.40
2015,02,16,04,13,0.40
2015,02,16,04,14,0.40
2015,02,16,04,15,0.30
2015,02,16,04,16,0.30
2015,02,16,04,17,0.30
2015,02,16,04,18,0.30
2015,02,16,04,19,0.30
2015,02,16,04,20,0.30
2015,02,16,04,21,0.30
2015,02,16,04,22,0.30
2015,02,16,04,23,0.30
2015,02,16,04,24,0.30
2015,02,16,04,25,0.30
2015,02,16,04,26,0.30
2015,02,16,04,27,0.30
2015,02,16,04,28,0.30
2015,02,16,04,29,0.30
2015,02,16,04,30,0.30
2015,02,16,04,31,0.30
2015,02,16,04,32,0.30
2015,02,16,04,33,0.30
2015,02,16,04,34,0.30
2015,02,16,04,35,0.30
2015,02,16,04,36,0.30
2015,02,16,04,37,0.30
2015,02,16,04,38,0.30
2015,02,16,04,39,0.30
2015,02,16,04,40,0.20
2015,02,16,04,41,0.20
2015,02,16,04,42,0.20
2015,02,16,04,43,0.20
2015,02,16,04,44,0.20
2015,02,16,04,45,0.20
2015,02,16,04,46,0.20
2015,02,16,04,47,0.20
2015,02,16,04,48,0.20
2015,02,16,04,49,0.20
2015,02,16,04,50,0.10
2015,02,16,04,51,0.10
2015,02,16,04,52,0.10
2015,02,16,04,53,0.10
2015,02,16,04,54,0.10
2015,02,16,04,55,0.10
2015,02,16,04,56,0.10
2015,02,16,04,57,0.10
2015,02,16,04,58,0.10
2015,02,16,04,59,0.10
2015,02,16,05,00,0.10
2015,02,16,05,01,0.10
2015,02,16,05,02,0.10
2015,02,16,05,03,0.10
2015,02,16,05,04,0.10
2015,02,16,05,05,0.10
2015,02,16,05,06,0.10
2015,02,16,05,07,0.10
2015,02,16,05,08,0.10
2015,02,16,05,09,0.10
2015,02,16,05,10,0.10
2015,02,16,05,11,0.10
2015,02,16,05,12,0.10
2015,02,16,05,13,0.10
2015,02,16,05,14,0.10
2015,02,16,05,15,0.10
2015,02,16,05,16,0.10
2015,02,16,05,17,0.10
2015,02,16,05,18,0.10
2015,02,16,05,19,0.10
2015,02,16,05,20,0.10
2015,02,16,05,21,0.10
2015,02,16,05,22,0.10
2015,02,16,05,23,0.10
2015,02,16,05,24,0.10
2015,02,16,05,25,0.10
2015,02,16,05,26,0.10
2015,02,16,05,27,0.10
2015,02,16,05,28,0.20
2015,02,16,05,29,0.20
2015,02,16,05,30,0.20
2015,02,16,05,31,0.20
2015,02,16,05,32,0.20
2015,02,16,05,33,0.20
2015,02,16,05,34,0.20
2015,02,16,05,35,0.20
2015,02,16,05,36,0.20
2015,02,16,05,37,0.20
2015,02,16,05,38,0.20
2015,02,16,05,39,0.20
2015,02,16,05,40,0.20
2015,02,16,05,41,0.30
2015,02,16,05,42,0.30
2015,02,16,05,43,0.30
2015,02,16,05,44,0.30
2015,02,16,05,45,0.30
2015,02,16,05,46,0.30
2015,02,16,05,47,0.40
2015,02,16,05,48,0.40
2015,02,16,05,49,0.40
2015,02,16,05,50,0.40
2015,02,16,05,51,0.40
2015,02,16,05,52,0.40
2015,02,16,05,53,0.40
2015,02,16,05,54,0.40
2015,02,16,05,55,0.40
2015,02,16,05,56,0.40
2015,02,16,05,57,0.40
2015,02,16,05,58,0.40
2015,02,16,05,59,0.40
2015,02,16,06,00,0.40
2015,02,16,06,01,0.40
2015,02,16,06,02,0.40
2015,02,16,06,03,0.40
2015,02,16,06,04,0.40
2015,02,16,06,05,0.40
2015,02,16,06,06,0.40
2015,02,16,06,07,0.40
2015,02,16,06,08,0.40
2015,02,16,06,09,0.40
2015,02,16,06,10,0.40
2015,02,16,06,11,0.40
2015,02,16,06,12,0.40
2015,02,16,06,13,0.40
2015,02,16,06,14,0.40
2015,02,16,06,15,0.40
2015,02,16,06,16,0.40
2015,02,16,06,17,0.40
2015,02,16,06,18,0.40
2015,02,16,06,19,0.40
2015,02,16,06,20,0.40
2015,02,16,06,21,0.50
2015,02,16,06,22,0.50
2015,02,16,06,23,0.50
2015,02,16,06,24,0.50
2015,02,16,06,25,0.60
2015,02,16,06,26,0.60
2015,02,16,06,27,0.60
2015,02,16,06,28,0.60
2015,02,16,06,29,0.60
2015,02,16,06,30,0.60
2015,02,16,06,31,0.60
2015,02,16,06,32,0.60
2015,02,16,06,33,0.60
2015,02,16,06,34,0.60
2015,02,16,06,35,0.50
2015,02,16,06,36,0.50
2015,02,16,06,37,0.50
2015,02,16,06,38,0.50
2015,02,16,06,39,0.40
2015,02,16,06,40,0.40
2015,02,16,06,41,0.40
2015,02,16,06,42,0.40
2015,02,16,06,43,0.40
2015,02,16,06,44,0.40
2015,02,16,06,45,0.30
2015,02,16,06,46,0.30
2015,02,16,06,47,0.30
2015,02,16,06,48,0.30
2015,02,16,06,49,0.30
2015,02,16,06,50,0.30
2015,02,16,06,51,0.30
2015,02,16,06,52,0.30
2015,02,16,06,53,0.30
2015,02,16,06,54,0.30
2015,02,16,06,55,0.30
2015,02,16,06,56,0.30
2015,02,16,06,57,0.30
2015,02,16,06,58,0.30
2015,02,16,06,59,0.30
2015,02,16,07,00,0.40
2015,02,16,07,01,0.40
2015,02,16,07,02,0.40
2015,02,16,07,03,0.40
2015,02,16,07,04,0.40
2015,02,16,07,05,0.40
2015,02,16,07,06,0.40
2015,02,16,07,07,0.40
2015,02,16,07,08,0.40
2015,02,16,07,09,0.40
2015,02,16,07,10,0.40
2015,02,16,07,11,0.40
2015,02,16,07,12,0.40
2015,02,16,07,13,0.40
2015,02,16,07,14,0.40
2015,02,16,07,15,0.40
2015,02,16,07,16,0.40
2015,02,16,07,17,0.40
2015,02,16,07,18,0.30
2015,02,16,07,19,0.30
2015,02,16,07,20,0.30
2015,02,16,07,21,0.30
2015,02,16,07,22,0.30
2015,02,16,07,23,0.30
2015,02,16,07,24,0.30
2015,02,16,07,25,0.30
2015,02,16,07,26,0.30
2015,02,16,07,27,0.20
2015,02,16,07,28,0.20
2015,02,16,07,29,0.20
2015,02,16,07,30,0.20
2015,02,16,07,31,0.20
2015,02,16,07,32,0.20
2015,02,16,07,33,0.20
2015,02,16,07,34,0.20
2015,02,16,07,35,0.20
2015,02,16,07,36,0.20
2015,02,16,07,37,0.20
2015,02,16,07,38,0.20
2015,02,16,07,39,0.30
2015,02,16,07,40,0.30
2015,02,16,07,41,0.30
2015,02,16,07,42,0.30
2015,02,16,07,43,0.30
2015,02,16,07,44,0.30
2015,02,16,07,45,0.30
2015,02,16,07,46,0.30
2015,02,16,07,47,0.30
2015,02,16,07,48,0.30
2015,02,16,07,49,0.40
2015,02,16,07,50,0.40
2015,02,16,07,51,0.40
2015,02,16,07,52,0.40
2015,02,16,07,53,0.40
2015,02,16,07,54,0.40
2015,02,16,07,55,0.40
2015,02,16,07,56,0.40
2015,02,16,07,57,0.40
2015,02,16,07,58,0.40
2015,02,16,07,59,0.40
2015,02,16,08,00,0.40
2015,02,16,08,01,0.40
2015,02,16,08,02,0.40
2015,02,16,08,03,0.40
2015,02,16,08,04,0.40
2015,02,16,08,05,0.40
2015,02,16,08,06,0.40
2015,02,16,08,07,0.40
2015,02,16,08,08,0.40
2015,02,16,08,09,0.40
2015,02,16,08,10,0.40
2015,02,16,08,11,0.40
2015,02,16,08,12,0.30
2015,02,16,08,13,0.30
2015,02,16,08,14,0.30
2015,02,16,08,15,0.40
2015,02,16,08,16,0.40
2015,02,16,08,17,0.40
2015,02,16,08,18,0.40
2015,02,16,08,19,0.40
2015,02,16,08,20,0.40
2015,02,16,08,21,0.40
2015,02,16,08,22,0.40
2015,02,16,08,23,0.50
2015,02,16,08,24,0.50
2015,02,16,08,25,0.50
2015,02,16,08,26,0.60
2015,02,16,08,27,0.60
2015,02,16,08,28,0.60
2015,02,16,08,29,0.60
2015,02,16,08,30,0.70
2015,02,16,08,31,0.70
2015,02,16,08,32,0.70
2015,02,16,08,33,0.70
2015,02,16,08,34,0.80
2015,02,16,08,35,0.80
2015,02,16,08,36,0.90
2015,02,16,08,37,0.90
2015,02,16,08,38,1.00
2015,02,16,08,39,1.10
2015,02,16,08,40,1.10
2015,02,16,08,41,1.20
2015,02,16,08,42,1.30
2015,02,16,08,43,1.30
2015,02,16,08,44,1.30
2015,02,16,08,45,1.30
2015,02,16,08,46,1.30
2015,02,16,08,47,1.40
2015,02,16,08,48,1.40
2015,02,16,08,49,1.50
2015,02,16,08,50,1.60
2015,02,16,08,51,1.60
2015,02,16,08,52,1.70
2015,02,16,08,53,1.70
2015,02,16,08,54,1.80
2015,02,16,08,55,1.80
2015,02,16,08,56,1.80
2015,02,16,08,57,1.80
2015,02,16,08,58,1.90
2015,02,16,08,59,1.90
2015,02,16,09,00,2.00
2015,02,16,09,01,2.00
2015,02,16,09,02,2.00
2015,02,16,09,03,2.10
2015,02,16,09,04,2.10
2015,02,16,09,05,2.20
2015,02,16,09,06,2.20
2015,02,16,09,07,2.20
2015,02,16,09,08,2.30
2015,02,16,09,09,2.30
2015,02,16,09,10,2.40
2015,02,16,09,11,2.40
2015,02,16,09,12,2.40
2015,02,16,09,13,2.40
2015,02,16,09,14,2.50
2015,02,16,09,15,2.60
2015,02,16,09,16,2.60
2015,02,16,09,17,2.60
2015,02,16,09,18,2.70
2015,02,16,09,19,2.70
2015,02,16,09,20,2.70
2015,02,16,09,21,2.80
2015,02,16,09,22,2.80
2015,02,16,09,23,2.80
2015,02,16,09,24,2.90
2015,02,16,09,25,2.90
2015,02,16,09,26,3.00
2015,02,16,09,27,3.00
2015,02,16,09,28,3.10
2015,02,16,09,29,3.10
2015,02,16,09,30,3.20
2015,02,16,09,31,3.20
2015,02,16,09,32,3.30
2015,02,16,09,33,3.30
2015,02,16,09,34,3.30
2015,02,16,09,35,3.40
2015,02,16,09,36,3.40
2015,02,16,09,37,3.50
2015,02,16,09,38,3.50
2015,02,16,09,39,3.60
2015,02,16,09,40,3.60
2015,02,16,09,41,3.70
2015,02,16,09,42,3.70
2015,02,16,09,43,3.80
2015,02,16,09,44,3.80
2015,02,16,09,45,3.90
2015,02,16,09,46,3.90
2015,02,16,09,47,4.00
2015,02,16,09,48,4.10
2015,02,16,09,49,4.10
2015,02,16,09,50,4.10
2015,02,16,09,51,4.20
2015,02,16,09,52,4.20
2015,02,16,09,53,4.30
2015,02,16,09,54,4.30
2015,02,16,09,55,4.40
2015,02,16,09,56,4.40
2015,02,16,09,57,4.50
2015,02,16,09,58,4.50
2015,02,16,09,59,4.60
2015,02,16,10,00,4.60
2015,02,16,10,01,4.70
2015,02,16,10,02,4.70
2015,02,16,10,03,4.80
2015,02,16,10,04,4.90
2015,02,16,10,05,5.00
2015,02,16,10,06,5.00
2015,02,16,10,07,5.10
2015,02,16,10,08,5.20
2015,02,16,10,09,5.30
2015,02,16,10,10,5.40
2015,02,16,10,11,5.50
2015,02,16,10,12,5.70
2015,02,16,10,13,5.80
2015,02,16,10,14,6.00
2015,02,16,10,15,6.10
2015,02,16,10,16,6.20
2015,02,16,10,17,6.30
2015,02,16,10,18,6.40
2015,02,16,10,19,6.50
2015,02,16,10,20,6.60
2015,02,16,10,21,6.60
2015,02,16,10,22,6.70
2015,02,16,10,23,6.80
2015,02,16,10,24,6.80
2015,02,16,10,25,6.80
2015,02,16,10,26,6.80
2015,02,16,10,27,6.90
2015,02,16,10,28,6.90
2015,02,16,10,29,6.90
2015,02,16,10,30,6.90
2015,02,16,10,31,7.00
2015,02,16,10,32,7.10
2015,02,16,10,33,7.20
2015,02,16,10,34,7.20
2015,02,16,10,35,7.30
2015,02,16,10,36,7.30
2015,02,16,10,37,7.30
2015,02,16,10,38,7.40
2015,02,16,10,39,7.40
2015,02,16,10,40,7.50
2015,02,16,10,41,7.50
2015,02,16,10,42,7.60
2015,02,16,10,43,7.70
2015,02,16,10,44,7.80
2015,02,16,10,45,7.80
2015,02,16,10,46,7.90
2015,02,16,10,47,7.90
2015,02,16,10,48,8.00
2015,02,16,10,49,8.10
2015,02,16,10,50,8.20
2015,02,16,10,51,8.20
2015,02,16,10,52,8.30
2015,02,16,10,53,8.30
2015,02,16,10,54,8.40
2015,02,16,10,55,8.40
2015,02,16,10,56,8.50
2015,02,16,10,57,8.50
2015,02,16,10,58,8.60
2015,02,16,10,59,8.60
2015,02,16,11,00,8.70
2015,02,16,11,01,8.70
2015,02,16,11,02,8.80
2015,02,16,11,03,8.90
2015,02,16,11,04,8.90
2015,02,16,11,05,9.00
2015,02,16,11,06,9.10
2015,02,16,11,07,9.10
2015,02,16,11,08,9.20
2015,02,16,11,09,9.30
2015,02,16,11,10,9.30
2015,02,16,11,11,9.40
2015,02,16,11,12,9.50
2015,02,16,11,13,9.60
2015,02,16,11,14,9.60
2015,02,16,11,15,9.70
2015,02,16,11,16,9.80
2015,02,16,11,17,9.80
2015,02,16,11,18,9.80
2015,02,16,11,19,9.90
2015,02,16,11,20,9.90
2015,02,16,11,21,10.00
2015,02,16,11,22,10.00
2015,02,16,11,23,10.00
2015,02,16,11,24,10.10
2015,02,16,11,25,10.10
2015,02,16,11,26,10.10
2015,02,16,11,27,10.10
2015,02,16,11,28,10.20
2015,02,16,11,29,10.20
2015,02,16,11,30,10.20
2015,02,16,11,31,10.30
2015,02,16,11,32,10.30
2015,02,16,11,33,10.30
2015,02,16,11,34,10.30
2015,02,16,11,35,10.30
2015,02,16,11,36,10.30
2015,02,16,11,37,10.30
2015,02,16,11,38,10.30
2015,02,16,11,39,10.30
2015,02,16,11,40,10.30
2015,02,16,11,41,10.30
2015,02,16,11,42,10.30
2015,02,16,11,43,10.30
2015,02,16,11,44,10.30
2015,02,16,11,45,10.30
2015,02,16,11,46,10.30
2015,02,16,11,47,10.30
2015,02,16,11,48,10.30
2015,02,16,11,49,10.30
2015,02,16,11,50,10.30
2015,02,16,11,51,10.30
2015,02,16,11,52,10.30
2015,02,16,11,53,10.30
2015,02,16,11,54,10.30
2015,02,16,11,55,10.30
2015,02,16,11,56,10.30
2015,02,16,11,57,10.30
2015,02,16,11,58,10.30
2015,02,16,11,59,10.30
2015,02,16,12,00,10.30
2015,02,16,12,01,10.30
2015,02,16,12,02,10.30
2015,02,16,12,03,10.30
2015,02,16,12,04,10.30
2015,02,16,12,05,10.30
2015,02,16,12,06,10.30
2015,02,16,12,07,10.30
2015,02,16,12,08,10.30
2015,02,16,12,09,10.30
2015,02,16,12,10,10.30
2015,02,16,12,11,10.30
2015,02,16,12,12,10.40
2015,02,16,12,13,10.40
2015,02,16,12,14,10.50
2015,02,16,12,15,10.50
2015,02,16,12,16,10.50
2015,02,16,12,17,10.60
2015,02,16,12,18,10.60
2015,02,16,12,19,10.70
2015,02,16,12,20,10.70
2015,02,16,12,21,10.70
2015,02,16,12,22,10.80
2015,02,16,12,23,10.80
2015,02,16,12,24,10.80
2015,02,16,12,25,10.90
2015,02,16,12,26,10.90
2015,02,16,12,27,10.90
2015,02,16,12,28,11.00
2015,02,16,12,29,11.10
2015,02,16,12,30,11.10
2015,02,16,12,31,11.10
2015,02,16,12,32,11.20
2015,02,16,12,33,11.20
2015,02,16,12,34,11.30
2015,02,16,12,35,11.30
2015,02,16,12,36,11.30
2015,02,16,12,37,11.30
2015,02,16,12,38,11.30
2015,02,16,12,39,11.30
2015,02,16,12,40,11.30
2015,02,16,12,41,11.30
2015,02,16,12,42,11.30
2015,02,16,12,43,11.30
2015,02,16,12,44,11.40
2015,02,16,12,45,11.40
2015,02,16,12,46,11.40
2015,02,16,12,47,11.40
2015,02,16,12,48,11.40
2015,02,16,12,49,11.40
2015,02,16,12,50,11.40
2015,02,16,12,51,11.40
2015,02,16,12,52,11.40
2015,02,16,12,53,11.40
2015,02,16,12,54,11.40
2015,02,16,12,55,11.40
2015,02,16,12,56,11.40
2015,02,16,12,57,11.40
2015,02,16,12,58,11.30
2015,02,16,12,59,11.30
2015,02,16,13,00,11.30
2015,02,16,13,01,11.30
2015,02,16,13,02,11.30
2015,02,16,13,03,11.30
2015,02,16,13,04,11.30
2015,02,16,13,05,11.30
2015,02,16,13,06,11.20
2015,02,16,13,07,11.20
2015,02,16,13,08,11.20
2015,02,16,13,09,11.20
2015,02,16,13,10,11.20
2015,02,16,13,11,11.20
2015,02,16,13,12,11.30
2015,02,16,13,13,11.30
2015,02,16,13,14,11.30
2015,02,16,13,15,11.30
2015,02,16,13,16,11.30
2015,02,16,13,17,11.30
2015,02,16,13,18,11.30
2015,02,16,13,19,11.30
2015,02,16,13,20,11.40
2015,02,16,13,21,11.40
2015,02,16,13,22,11.40
2015,02,16,13,23,11.40
2015,02,16,13,24,11.40
2015,02,16,13,25,11.40
2015,02,16,13,26,11.40
2015,02,16,13,27,11.50
2015,02,16,13,28,11.40
2015,02,16,13,29,11.40
2015,02,16,13,30,11.40
2015,02,16,13,31,11.50
2015,02,16,13,32,11.50
2015,02,16,13,33,11.50
2015,02,16,13,34,11.60
2015,02,16,13,35,11.60
2015,02,16,13,36,11.60
2015,02,16,13,37,11.70
2015,02,16,13,38,11.70
2015,02,16,13,39,11.70
2015,02,16,13,40,11.70
2015,02,16,13,41,11.80
2015,02,16,13,42,11.80
2015,02,16,13,43,11.80
2015,02,16,13,44,11.80
2015,02,16,13,45,11.80
2015,02,16,13,46,11.90
2015,02,16,13,47,11.90
2015,02,16,13,48,12.00
2015,02,16,13,49,12.00
2015,02,16,13,50,12.00
2015,02,16,13,51,12.10
2015,02,16,13,52,12.10
2015,02,16,13,53,12.10
2015,02,16,13,54,12.10
2015,02,16,13,55,12.10
2015,02,16,13,56,12.10
2015,02,16,13,57,12.10
2015,02,16,13,58,12.10
2015,02,16,13,59,12.20
2015,02,16,14,00,12.20
2015,02,16,14,01,12.20
2015,02,16,14,02,12.20
2015,02,16,14,03,12.20
2015,02,16,14,04,12.20
2015,02,16,14,05,12.20
2015,02,16,14,06,12.20
2015,02,16,14,07,12.30
2015,02,16,14,08,12.30
2015,02,16,14,09,12.20
2015,02,16,14,10,12.20
2015,02,16,14,11,12.20
2015,02,16,14,12,12.20
2015,02,16,14,13,12.20
2015,02,16,14,14,12.20
2015,02,16,14,15,12.20
2015,02,16,14,16,12.20
2015,02,16,14,17,12.20
2015,02,16,14,18,12.20
2015,02,16,14,19,12.20
2015,02,16,14,20,12.20
2015,02,16,14,21,12.20
2015,02,16,14,22,12.20
2015,02,16,14,23,12.20
2015,02,16,14,24,12.20
2015,02,16,14,25,12.20
2015,02,16,14,26,12.20
2015,02,16,14,27,12.20
2015,02,16,14,28,12.20
2015,02,16,14,29,12.20
2015,02,16,14,30,12.20
2015,02,16,14,31,12.20
2015,02,16,14,32,12.20
2015,02,16,14,33,12.30
2015,02,16,14,34,12.30
2015,02,16,14,35,12.30
2015,02,16,14,36,12.30
2015,02,16,14,37,12.30
2015,02,16,14,38,12.30
2015,02,16,14,39,12.30
2015,02,16,14,40,12.40
2015,02,16,14,41,12.40
2015,02,16,14,42,12.40
2015,02,16,14,43,12.40
2015,02,16,14,44,12.40
2015,02,16,14,45,12.40
2015,02,16,14,46,12.40
2015,02,16,14,47,12.40
2015,02,16,14,48,12.40
2015,02,16,14,49,12.40
2015,02,16,14,50,12.40
2015,02,16,14,51,12.40
2015,02,16,14,52,12.40
2015,02,16,14,53,12.30
2015,02,16,14,54,12.30
2015,02,16,14,55,12.30
2015,02,16,14,56,12.30
2015,02,16,14,57,12.20
2015,02,16,14,58,12.20
2015,02,16,14,59,12.20
2015,02,16,15,00,12.20
2015,02,16,15,01,12.20
2015,02,16,15,02,12.20
2015,02,16,15,03,12.20
2015,02,16,15,04,12.30
2015,02,16,15,05,12.30
2015,02,16,15,06,12.30
2015,02,16,15,07,12.30
2015,02,16,15,08,12.30
2015,02,16,15,09,12.30
2015,02,16,15,10,12.30
2015,02,16,15,11,12.30
2015,02,16,15,12,12.30
2015,02,16,15,13,12.30
2015,02,16,15,14,12.30
2015,02,16,15,15,12.30
2015,02,16,15,16,12.30
2015,02,16,15,17,12.30
2015,02,16,15,18,12.30
2015,02,16,15,19,12.20
2015,02,16,15,20,12.20
2015,02,16,15,21,12.20
2015,02,16,15,22,12.10
2015,02,16,15,23,12.10
2015,02,16,15,24,12.10
2015,02,16,15,25,12.00
2015,02,16,15,26,12.00
2015,02,16,15,27,12.00
2015,02,16,15,28,11.90
2015,02,16,15,29,11.90
2015,02,16,15,30,11.90
2015,02,16,15,31,11.90
2015,02,16,15,32,11.90
2015,02,16,15,33,11.80
2015,02,16,15,34,11.80
2015,02,16,15,35,11.80
2015,02,16,15,36,11.80
2015,02,16,15,37,11.80
2015,02,16,15,38,11.80
2015,02,16,15,39,11.80
2015,02,16,15,40,11.70
2015,02,16,15,41,11.70
2015,02,16,15,42,11.70
2015,02,16,15,43,11.70
2015,02,16,15,44,11.70
2015,02,16,15,45,11.70
2015,02,16,15,46,11.60
2015,02,16,15,47,11.60
2015,02,16,15,48,11.60
2015,02,16,15,49,11.60
2015,02,16,15,50,11.60
2015,02,16,15,51,11.60
2015,02,16,15,52,11.60
2015,02,16,15,53,11.60
2015,02,16,15,54,11.50
2015,02,16,15,55,11.50
2015,02,16,15,56,11.50
2015,02,16,15,57,11.50
2015,02,16,15,58,11.50
2015,02,16,15,59,11.50
2015,02,16,16,00,11.50
2015,02,16,16,01,11.40
2015,02,16,16,02,11.40
2015,02,16,16,03,11.40
2015,02,16,16,04,11.40
2015,02,16,16,05,11.40
2015,02,16,16,06,11.40
2015,02,16,16,07,11.40
2015,02,16,16,08,11.40
2015,02,16,16,09,11.40
2015,02,16,16,10,11.40
2015,02,16,16,11,11.40
2015,02,16,16,12,11.40
2015,02,16,16,13,11.40
2015,02,16,16,14,11.40
2015,02,16,16,15,11.30
2015,02,16,16,16,11.30
2015,02,16,16,17,11.30
2015,02,16,16,18,11.30
2015,02,16,16,19,11.30
2015,02,16,16,20,11.30
2015,02,16,16,21,11.30
2015,02,16,16,22,11.20
2015,02,16,16,23,11.20
2015,02,16,16,24,11.20
2015,02,16,16,25,11.20
2015,02,16,16,26,11.20
2015,02,16,16,27,11.20
2015,02,16,16,28,11.20
2015,02,16,16,29,11.20
2015,02,16,16,30,11.10
2015,02,16,16,31,11.10
2015,02,16,16,32,11.10
2015,02,16,16,33,11.10
2015,02,16,16,34,11.10
2015,02,16,16,35,11.10
2015,02,16,16,36,11.10
2015,02,16,16,37,11.10
2015,02,16,16,38,11.10
2015,02,16,16,39,11.10
2015,02,16,16,40,11.10
2015,02,16,16,41,11.10
2015,02,16,16,42,11.10
2015,02,16,16,43,11.10
2015,02,16,16,44,11.10
2015,02,16,16,45,11.10
2015,02,16,16,46,11.00
2015,02,16,16,47,11.00
2015,02,16,16,48,11.00
2015,02,16,16,49,11.00
2015,02,16,16,50,11.00
2015,02,16,16,51,11.00
2015,02,16,16,52,11.00
2015,02,16,16,53,10.90
2015,02,16,16,54,10.90
2015,02,16,16,55,10.90
2015,02,16,16,56,10.90
2015,02,16,16,57,10.80
2015,02,16,16,58,10.80
2015,02,16,16,59,10.80
2015,02,16,17,00,10.80
2015,02,16,17,01,10.70
2015,02,16,17,02,10.70
2015,02,16,17,03,10.70
2015,02,16,17,04,10.70
2015,02,16,17,05,10.60
2015,02,16,17,06,10.60
2015,02,16,17,07,10.50
2015,02,16,17,08,10.50
2015,02,16,17,09,10.40
2015,02,16,17,10,10.40
2015,02,16,17,11,10.40
2015,02,16,17,12,10.30
2015,02,16,17,13,10.30
2015,02,16,17,14,10.30
2015,02,16,17,15,10.20
2015,02,16,17,16,10.20
2015,02,16,17,17,10.10
2015,02,16,17,18,10.10
2015,02,16,17,19,10.00
2015,02,16,17,20,10.00
2015,02,16,17,21,9.90
2015,02,16,17,22,9.80
2015,02,16,17,23,9.80
2015,02,16,17,24,9.70
2015,02,16,17,25,9.60
2015,02,16,17,26,9.60
2015,02,16,17,27,9.50
2015,02,16,17,28,9.40
2015,02,16,17,29,9.30
2015,02,16,17,30,9.30
2015,02,16,17,31,9.20
2015,02,16,17,32,9.20
2015,02,16,17,33,9.10
2015,02,16,17,34,9.10
2015,02,16,17,35,9.00
2015,02,16,17,36,8.90
2015,02,16,17,37,8.90
2015,02,16,17,38,8.80
2015,02,16,17,39,8.80
2015,02,16,17,40,8.70
2015,02,16,17,41,8.70
2015,02,16,17,42,8.60
2015,02,16,17,43,8.60
2015,02,16,17,44,8.50
2015,02,16,17,45,8.40
2015,02,16,17,46,8.40
2015,02,16,17,47,8.30
2015,02,16,17,48,8.20
2015,02,16,17,49,8.20
2015,02,16,17,50,8.10
2015,02,16,17,51,8.10
2015,02,16,17,52,8.00
2015,02,16,17,53,7.90